www.pogodaiklimat.ru

Погода и климат >> Архив погоды >> Канада >> Stefansson Island


ПОГОДА в Stefansson Island

  • Прогноз погоды в Stefansson Island
  • Монитор погоды в Stefansson Island
  • Климат города

АРХИВ ПОГОДЫ в Stefansson Island

Время (UTC), дата Ветер
(напр.,м/с)
 
Видим.   Явления Облачность Т
(С)
Тd
(С)
f
(%)
Тe
(С)
Тes
(С)
Комфортность P
(гПа)
Po
(гПа)
Тmin
(С)
Tmax
(С)
R
(мм)
R24
(мм)
S
(см)
18 9.08 З 4 н/о {осадки} н/о +1.4 +0.3 92 -4 -4 1014.3 1012.9 -0.2 +1.4 0.2
21 9.08 СЗ 4 н/о н/о +2.3 +0.9 90 -2 -2 1014.6 1013.2
00 10.08 З 4 н/о н/о +2.4 +1.1 91 -3 -3 1014.6 1013.2 -0.1 +3.0
03 10.08 ЮЗ 5 н/о н/о +4.3 +1.7 83 -0 -0 1013.4 1012.0
06 10.08 Ю 8 н/о н/о +3.2 +1.8 91 -3 -3 1011.3 1009.9 -0.1 +4.4 6
09 10.08 Ю 8 н/о н/о +2.9 +1.7 92 -4 -4 1009.2 1007.8
12 10.08 ЮЗ 7 н/о н/о +5.2 +3.7 90 -0 -0 1007.4 1006.0 +2.4 +4.4
15 10.08 ЮЗ 8 н/о н/о +7.3 +5.9 91 +2 +2 1005.7 1004.3
18 10.08 З 7 н/о {осадки} н/о +6.5 +5.6 94 +1 +1 1005.3 1003.9 +1.0 +8.0 0.7
21 10.08 З 6 н/о н/о +3.2 +2.4 94 -3 -3 1006.0 1004.6
00 11.08 З 7 н/о н/о +3.0 +1.9 92 -3 -3 1007.1 1005.7 +2.6 +8.0
03 11.08 З 5 н/о н/о +3.3 +1.8 90 -2 -2 1007.3 1005.9
06 11.08 З 2 н/о н/о +1.9 +1.4 96 -2 -2 1008.0 1006.6 +1.9 +8.0 17
09 11.08 штиль 0 н/о н/о +1.1 +0.7 97 -0 -0 1008.4 1007.0
12 11.08 В 2 н/о {осадки} н/о +1.5 +0.8 95 -1 -1 1008.6 1007.2 +0.8 +8.0 0.2
15 11.08 СВ 1 н/о {осадки} н/о +2.3 +1.2 92 +2 +2 1008.5 1007.1 0.2
18 11.08 В 3 н/о {осадки} н/о +3.7 +3.0 95 0 0 1008.1 1006.7 +0.8 +4.9 0.4
21 11.08 В 2 н/о н/о +2.0 +1.3 95 -2 -2 1008.2 1006.8
00 12.08 В 1 н/о н/о +1.6 +1.0 96 -0 -0 1008.1 1006.7 +0.8 +4.9
03 12.08 ЮВ 3 н/о н/о +2.5 +2.1 97 -2 -2 1006.9 1005.5
06 12.08 Ю 8 н/о н/о +9.2 +8.6 96 +5 +5 1006.2 1004.8 +0.8 +9.3 6
09 12.08 Ю 10 н/о н/о +10.8 +9.5 92 +6 +6 1005.0 1003.6
12 12.08 Ю 12 н/о н/о +12.6 +10.3 86 +9 +9 1004.2 1002.8 +1.2 +9.3
15 12.08 Ю 10 н/о н/о +14.1 +11.3 83 +11 +11 1003.4 1002.0
18 12.08 ЮЗ 5 н/о н/о +14.3 +11.9 85 +13 +13 1003.4 1002.0 +1.2 +15.2
21 12.08 В 3 н/о н/о +4.0 +2.5 90 +1 +1 1003.3 1001.9
00 13.08 СЗ 4 н/о {осадки} н/о +3.3 +2.9 97 -1 -1 1003.9 1002.5 +3.2 +15.2 1
03 13.08 СЗ 2 н/о н/о +4.7 +4.3 97 +2 +2 1004.3 1002.9
06 13.08 С 2 н/о н/о +2.2 +1.8 97 -1 -1 1005.6 1004.2 12
09 13.08 С 3 н/о н/о +0.5 +0.3 99 -4 -4 1007.1 1005.7
12 13.08 СВ 5 н/о н/о -0.2 -0.4 99 -7 -7 1007.6 1006.2
15 13.08 СВ 4 н/о {осадки} н/о -0.6 -0.8 99 -7 -7 1007.4 1006.0 0.2
18 13.08 СВ 6 н/о {осадки} н/о 0.0 -0.3 98 -7 -7 1006.9 1005.5 +2.2 0.2
21 13.08 СВ 8 н/о н/о +0.2 -0.8 93 -7 -7 1007.8 1006.4
00 14.08 С 6 н/о н/о +0.6 -1.6 85 -6 -6 1009.7 1008.3 -0.9 +0.9
03 14.08 С 7 н/о н/о -0.8 -2.1 91 -8 -8 1010.9 1009.5
06 14.08 С 7 н/о н/о -1.2 -2.6 90 -9 -9 1013.2 1011.8 -1.7 +2.2 5
09 14.08 С 6 н/о н/о -1.3 -2.9 89 -8 -8 1015.4 1014.0
12 14.08 СВ 6 н/о н/о -1.5 -3.6 86 -9 -9 1017.1 1015.7 -1.7 +2.2
15 14.08 СВ 4 н/о н/о -1.5 -3.5 86 -7 -7 1018.7 1017.3
18 14.08 СВ 3 н/о н/о -0.7 -3.1 84 -6 -6 1019.8 1018.4 -1.7 -0.7
21 14.08 СВ 3 н/о н/о -0.7 -2.9 85 -6 -6 1020.5 1019.1
00 15.08 СВ 3 н/о н/о -1.1 -3.1 86 -6 -6 1021.1 1019.7 -1.7 -0.2
03 15.08 В 3 н/о н/о -2.0 -2.7 95 -7 -7 1020.9 1019.5
06 15.08 В 3 н/о н/о -2.4 -3.0 96 -7 -7 1020.6 1019.2 -2.4 -0.2 7
09 15.08 ЮВ 4 н/о н/о -3.1 -3.5 97 -9 -9 1020.3 1018.9
12 15.08 ЮВ 5 н/о н/о -3.1 -3.5 97 -10 -10 1019.9 1018.5 -3.3 -0.2
15 15.08 ЮВ 6 н/о н/о -1.3 -2.6 91 -8 -8 1019.0 1017.6
18 15.08 ЮВ 6 н/о н/о +0.7 -1.2 87 -6 -6 1018.4 1017.0 -3.3 +1.3
21 15.08 ЮВ 7 н/о н/о +2.2 +0.3 87 -4 -4 1017.6 1016.2
00 16.08 В 6 н/о н/о +0.1 -1.1 92 -6 -6 1016.8 1015.4 -3.3 +2.5
03 16.08 В 7 н/о н/о -0.3 -1.3 93 -8 -8 1015.5 1014.1
06 16.08 В 5 н/о н/о 0.0 -0.9 94 -6 -6 1015.2 1013.8 -3.3 +3.8 22
09 16.08 Ю 9 н/о н/о +3.8 -1.1 70 -2 -2 1014.4 1013.0
12 16.08 В 5 н/о н/о +3.2 -1.5 71 -2 -2 1013.8 1012.4 -0.9 +3.8
15 16.08 В 7 н/о н/о +0.8 -0.9 88 -6 -6 1013.4 1012.0

 

Местоположение метеостанции Stefansson Island (Канада): широта 73.77 долгота -105.20 высота над уровнем моря 11 м.

В архиве по умолчанию представлена погода в Stefansson Island за последнюю неделю. Архивные данные за месяц целиком и за предыдущие месяцы, начиная с января 2011 года, Вы можете получить, выбрав интересующий диапазон дат из раскрывающегося списка и нажав кнопку "Ввод!".

Внимание! Время в таблицах - всемирное. Для получения местного времени необходимо прибавить поправку, которая в Stefansson Island равна -7 ч.

Смотрите также архив погоды в соседних городах и на ближайших метеорологических станциях:

Погода в Resolute Airport (Канада) (326 км)
Погода в Resolute Cs (Канада) (326 км)
Погода в Aulvik Ntl Park (Канада) (453 км)
Погода в Mould Bay Cs (Канада) (488 км)
Погода в Mould Bay, N. W. T. (Канада) (488 км)
Погода в Cambridge Bay Gsn (Канада) (519 км)
Погода в Cambridge Bay Arpt (Канада) (519 км)
Погода в Cape Peel West (Канада) (535 км)
Погода в Holman (Канада) (542 км)
Погода в Isachsen (aut) (Канада) (559 км)

Пояснения к столбцам:

Ветер - указаны скорость ветра в м/с - средняя за 10 мин, порывы в срок и между сроками (в фигурных скобках) и направление, откуда дует ветер: С - северный, СВ - северо-восточный, В - восточный, ЮВ - юго-восточный, Ю - южный, ЮЗ - юго-западный, З - западный, СЗ - северо-западный.
Видимость - горизонтальная дальность видимости в метрах или километрах. При видимости от 1 до 10 км при отсутствии осадков обычно наблюдается дымка, при ухудшении видимости до 1 км и менее - туман. В сухую погоду видимость может ухудшаться дымом, пылью или мглою.
Явления - указаны атмосферные явления, наблюдавшиеся в срок или в последний час перед сроком; фигурными скобками обозначены явления, наблюдавшиеся между сроками (за 1-3 часа до срока); квадратными скобками обозначены град или гололедные отложения с указанием их диаметра в мм.
Облачность - указаны через наклонную черту общая и нижняя облачность в баллах и высота нижней границы облаков в метрах; квадратными скобками обозначены формы облаков: Ci - перистые, Cs - перисто-слоистые, Cc - перисто-кучевые, Ac - высококучевые, As - высокослоистые, Sc - слоисто-кучевые, Ns - слоисто-дождевые, Cu - кучевые, Cb - кучево-дождевые. Подробнее классификацию облаков см. в Атласе облаков (PDF).
T - Температура воздуха - температура, измеренная на высоте 2 м над землей.
Td - Температура точки росы - температура, при понижении до которой содержащийся в воздухе водяной пар достигнет насыщения.
f - Относительная влажность воздуха - влажноcть воздуха, измеренная на высоте 2 м над землей.
Te - Эффективная температура - температура, которую ощущает одетый по сезону человек в тени. Характеристика душности погоды. При расчете учитывается влияние влажности воздуха и скорости ветра на теплоощущения человека.
Tes - Эффективная температура на солнце - температура, которую ощущает человек, с поправкой на солнечный нагрев. Характеристика знойности погоды. Зависит от высоты солнца над горизонтом, облачности и скорости ветра. Ночью, в пасмурную погоду, а также при ветре 12 м/с и более поправка равна нулю.
P - Атмосферное давление - приведенное к уровню моря атмосферное давление.
Po - Атмосферное давление - измеренное на уровне метеостанции атмосферное давление.
Tmin - Минимальная температура - минимум температуры воздуха на высоте 2 м над землей.
Tmax - Максимальная температура - максимум температуры воздуха на высоте 2 м над землей.
R - Количество осадков - Количество выпавших осадков за период времени, мм. При наведении курсора мыши на число - период времени, за который выпало указанное количество осадков.
R24 - Количество осадков - Количество выпавших осадков за 24 часа, мм.
S - Снежный покров - Высота снежного покрова, см. При наведении курсора мыши на число - состояние снежного покрова и степень покрытия местности в баллах.